Flag for U.S.A. Weather past 2 weeks in Glendale, Arizona, U.S.A.

Now
96 °F

Sunny.


Feels Like: 91 °F
Forecast: 66 / 98 °F
Wind: 8 mph from Southwest

Location: Phoenix-Deer Valley Municipal Airport

Current Time: May 29, 2015 at 1:58:25 PM

Latest Report: May 29, 2015 at 12:53 PM


Visibility: 10 mi

Pressure: 29.83 "Hg

Humidity: 8%

Dew point: 26 °F

Location of GlendaleLocation

Historic Weather in Glendale — Graph

°F

Glendale temperature yesterday

Maximum temperature yesterday: 94 °F (at 4:53 PM)
Minimum temperature yesterday: 65 °F (at 5:53 AM)
Average temperature yesterday: 82 °F

Past Weeks' High & Low Weather Summary

 TemperatureHumidityPressure
High96 °F (May 29, 12:53 PM)93% (May 15, 10:53 PM)29.96 "Hg (May 15, 10:53 PM)
Low53 °F (May 15, 11:53 PM)7% (May 28, 6:53 PM)29.67 "Hg (May 14, 3:53 PM)
Average73 °F31%29.83 "Hg
* Reported May 14 12:53 PM — May 29 12:53 PM, Glendale, Weather by CustomWeather, © 2015

Note: Actual official high and low records may vary slightly from our data, if they occured in-between our weather recording intervals... More about our weather records

Advertising

Glendale weather history for previous 24 hours

 ConditionsComfort  
Time TempWeatherWind HumidityBarometerVisibility
12:53 PM
Fri, May 29
96 °FSunny.8 mph8%29.83 "Hg10 mi
11:53 AM92 °FSunny.3 mph10%29.85 "Hg10 mi
10:53 AM89 °FSunny.7 mph12%29.88 "Hg10 mi
9:53 AM86 °FSunny.6 mph14%29.88 "Hg10 mi
8:53 AM82 °FSunny.3 mph18%29.88 "Hg10 mi
7:53 AM80 °FSunny.6 mph19%29.85 "Hg10 mi
6:53 AM73 °FSunny.3 mph24%29.85 "Hg10 mi
5:53 AM68 °FSunny.No wind26%29.83 "Hg10 mi
4:53 AM67 °FClear.No wind29%29.81 "Hg10 mi
3:53 AM68 °FClear.No wind28%29.80 "Hg10 mi
2:53 AM69 °FClear.No wind25%29.79 "Hg10 mi
1:53 AM70 °FClear.No wind25%29.79 "Hg10 mi
12:53 AM71 °FClear.No wind23%29.80 "Hg10 mi
11:53 PM
Thu, May 28
76 °FClear.No wind18%29.80 "Hg10 mi
10:53 PM78 °FClear.No wind17%29.80 "Hg10 mi
9:53 PM82 °FClear.3 mph14%29.80 "Hg10 mi
8:53 PM86 °FClear.No wind13%29.78 "Hg10 mi
7:53 PM90 °FClear.8 mph9%29.76 "Hg10 mi
6:53 PM93 °FSunny.10 mph7%29.76 "Hg10 mi
5:53 PM93 °FSunny.3 mph10%29.75 "Hg10 mi
4:53 PM94 °FSunny.10 mph9%29.76 "Hg10 mi
3:53 PM93 °FSunny.7 mph9%29.78 "Hg10 mi
2:53 PM92 °FSunny.6 mph9%29.80 "Hg10 mi
1:53 PM92 °FSunny.8 mph10%29.82 "Hg10 mi
Weather by CustomWeather, © 2015

See weather overviewHow to use our weather pages